Location: Mount Kobau Star Party
(49.1167°N, 119.7333°W)
Time: 12:32:01
(UTC-07:00)

ARIANE 6 FM1 Upper Stage - Pass Details

Date: 19 April 2026
Orbit: 526 x 601 km, 62.0° (Epoch: 18 May)

Event Time Altitude Azimuth Distance (km) Brightness Sun altitude
Rises 22:33:06 0° 310° (NW) 2,689 7.6 -21.5°
Reaches altitude 10° 22:36:15 10° 337° (NNW) 1,786 6.3 -21.8°
Maximum altitude 22:38:25 14° 10° (N) 1,537 5.4 -22.0°
Drops below altitude 10° 22:40:35 10° 43° (NE) 1,775 5.3 -22.2°
Enters shadow 22:41:57 - 57° (ENE) 2,112 5.6 -22.4°
